www.pogodaiklimat.ru

Погода и климат >> Архив погоды >> Ирак >> Хадита


ПОГОДА в Хадите

  • Прогноз погоды в Хадите
  • Монитор погоды в Хадите

АРХИВ ПОГОДЫ в Хадите

Время (UTC), дата Ветер
(напр.,м/с)
 
Видим.   Явления Облачность Т
(С)
Тd
(С)
f
(%)
Тe
(С)
Тes
(С)
Комфортность P
(гПа)
Po
(гПа)
Тmin
(С)
Tmax
(С)
R
(мм)
R24
(мм)
S
(см)
18 12.06 СЗ 2 10 км ясно +33.6 +13.8 30 +35 +35 душно 1006.0 990.4 +39.8
21 12.06 штиль 0 10 км ясно +28.4 +11.1 34 +29 +29 жарко 1006.2 990.4
00 13.06 З 3 10 км ясно +25.2 +8.0 33 +25 +25 комфорт 1006.3 990.3
03 13.06 З 4 10 км ясно +24.5 +8.7 37 +25 +26 комфорт 1006.4 990.4
06 13.06 СЗ 3 10 км ясно +31.4 +15.7 39 +34 +44 душно 1008.1 992.4 +22.2
09 13.06 С 2 10 км ясно +36.6 +17.2 32 +40 +61 опасность
солнечного
удара
1007.9 992.5
12 13.06 СЗ 2 10 км ясно +38.2 +18.2 31 +42 +55 опасность
перегрева
1005.8 990.5
15 13.06 СВ 2 10 км ясно +36.8 +18.7 35 +41 +43 опасность
перегрева
1003.9 988.5
03 14.06 штиль 0 10 км ясно +22.8 +10.9 47 +25 +26 комфорт 1006.4 990.3
06 14.06 СЗ 3 10 км ясно +32.0 +15.3 37 +34 +44 душно 1008.1 992.4 +22.0
09 14.06 СВ 2 10 км ясно +39.0 +15.5 25 +40 +62 опасность
солнечного
удара
1005.7 990.4
12 14.06 штиль 0 10 км ясно +40.6 +17.6 26 +43 +62 опасность
перегрева
1005.7 990.5
15 14.06 З 3 10 км ясно +39.4 +17.5 28 +42 +44 опасность
перегрева
1003.7 988.5
18 14.06 З 2 10 км ясно +35.4 +27.9 65 +56 +56 опасность
перегрева
1003.9 988.5 +41.2
21 14.06 штиль 0 10 км ясно +32.0 +18.5 45 +37 +37 очень
душно
1004.0 988.4
03 15.06 СЗ 2 10 км ясно +24.0 +12.1 47 +26 +26 жарко 1004.3 988.3
06 15.06 З 1 10 км 4/4
[Sc]
+35.2 +13.7 28 +36 +45 очень
жарко
1003.9 988.4 +23.0
09 15.06 СЗ 2 10 км ясно +40.4 +11.9 18 +39 +61 опасность
солнечного
удара
1003.7 988.5
12 15.06 З 1 10 км 3/3
[Sc]
+42.0 +14.8 20 +43 +54 опасность
перегрева
1001.6 986.5
15 15.06 штиль 0 10 км 3/3
[Sc]
+41.6 +15.5 22 +43 +44 опасность
перегрева
999.6 984.5
21 15.06 З 1 10 км 3/3
[Sc]
+30.8 +14.0 36 +32 +32 жарко 1002.1 986.4
03 16.06 штиль 0 10 км 1/0
[Ci fib]
+30.2 +12.6 34 +31 +32 жарко 1000.0 984.4
06 16.06 штиль 0 10 км ясно +36.2 +14.6 28 +37 +54 опасность
солнечного
удара
1001.8 986.4 +29.4
09 16.06 штиль 0 10 км ясно +24.7 +16.9 62 +28 +57 опасность
солнечного
удара
1001.6 985.6
12 16.06 В 1 10 км ясно +44.6 +16.0 19 +46 +62 опасность
перегрева
999.5 984.6
15 16.06 СЗ 65 10 км ясно +42.5 +14.4 19 +43 +43 опасность
перегрева
999.6 984.6
18 16.06 З 5 10 км ясно +38.6 +14.7 24 +39 +39 душно 999.7 984.5 +45.0
21 16.06 З 4 10 км ясно +34.4 +13.4 28 +35 +35 очень
жарко
1001.9 986.4
00 17.06 З 5 10 км ясно +31.5 +11.3 29 +32 +32 жарко 1002.0 986.4
06 17.06 СЗ 5 10 км ясно +34.0 +16.8 36 +37 +43 очень
душно
1006.0 990.5 +28.0
09 17.06 З 5 10 км ясно +38.4 +17.7 30 +42 +53 опасность
перегрева
1005.8 990.5
12 17.06 СЗ 5 10 км ясно +41.4 +18.3 26 +45 +52 опасность
перегрева
1005.7 990.5
15 17.06 С 4 10 км 4/0
[Ac trans]
+39.6 +17.3 27 +42 +43 опасность
перегрева
1003.7 988.5
21 17.06 штиль 0 10 км ясно +32.0 +18.5 45 +37 +37 очень
душно
1004.0 988.4
03 18.06 СЗ 2 10 км ясно +24.0 +12.1 47 +26 +26 жарко 1006.2 990.1
06 18.06 СЗ 2 10 км ясно +32.0 +13.9 33 +33 +45 жарко 1008.1 992.4 +24.4
09 18.06 З 3 10 км ясно +36.9 +16.3 30 +39 +57 опасность
солнечного
удара
1005.9 990.5
12 18.06 З 2 10 км ясно +38.8 +15.0 25 +40 +54 опасность
солнечного
удара
1005.8 990.5
15 18.06 З 4 10 км ясно +38.0 +16.2 28 +40 +41 очень
душно
1005.8 990.5
18 18.06 З 2 10 км ясно +33.8 +15.2 33 +36 +36 очень
душно
1006.0 990.4 +39.1
21 18.06 З 2 10 км ясно +29.0 +13.6 39 +31 +31 жарко 1006.1 990.3
00 19.06 штиль 0 10 км ясно +26.8 +12.8 42 +28 +28 жарко 1006.3 990.4
03 19.06 З 3 10 км ясно +27.0 +16.9 54 +31 +31 душно 1006.2 990.3
06 19.06 З 3 10 км ясно +30.0 +18.2 49 +35 +45 очень
душно
1006.1 990.3 +25.5
09 19.06 З 3 10 км ясно +34.8 +18.7 39 +40 +57 опасность
солнечного
удара
1006.0 990.5
12 19.06 З 1 10 км ясно +37.4 +17.9 32 +41 +57 опасность
перегрева
1005.8 990.4
15 19.06 З 2 10 км ясно +36.2 +16.2 31 +39 +40 очень
душно
1003.9 988.5

 

Местоположение метеостанции Хадита (Ирак): широта 34.07 долгота 42.37 высота над уровнем моря 140 м.

В архиве по умолчанию представлена погода в Хадите за последнюю неделю. Архивные данные за месяц целиком и за предыдущие месяцы, начиная с января 2011 года, Вы можете получить, выбрав интересующий диапазон дат из раскрывающегося списка и нажав кнопку "Ввод!".


*Определитесь, кто Вы:
робот инопланетянин человек

Внимание! Время в таблицах - всемирное. Для получения местного времени необходимо прибавить поправку, которая равна 3 ч.

Смотрите также архив погоды в соседних городах и на ближайших метеорологических станциях:

Погода в Ане (Ирак) (59 км)
Погода в Эр-Рамади (Ирак) (112 км)
Погода в Аль-Каиме (Ирак) (129 км)
Погода в Тикрите (Ирак) (134 км)
Погода в Хите (Ирак) (137 км)
Погода в Абу-Камале (Сирия) (139 км)
Погода в Бейджи (Ирак) (140 км)
Погода в Багдаде (Ирак) (196 км)
Погода в Эль-Халисе (Ирак) (201 км)
Погода в Махмуре (Ирак) (218 км)

Пояснения к столбцам:

Ветер - указаны скорость ветра в м/с - средняя за 10 мин, порывы в срок и между сроками (в фигурных скобках) и направление, откуда дует ветер: С - северный, СВ - северо-восточный, В - восточный, ЮВ - юго-восточный, Ю - южный, ЮЗ - юго-западный, З - западный, СЗ - северо-западный.
Видимость - горизонтальная дальность видимости в метрах или километрах. При видимости от 1 до 10 км при отсутствии осадков обычно наблюдается дымка, при ухудшении видимости до 1 км и менее - туман. В сухую погоду видимость может ухудшаться дымом, пылью или мглою.
Явления - указаны атмосферные явления, наблюдавшиеся в срок или в последний час перед сроком; фигурными скобками обозначены явления, наблюдавшиеся между сроками (за 1-3 часа до срока); квадратными скобками обозначены град или гололедные отложения с указанием их диаметра в мм.
Облачность - указаны через наклонную черту общая и нижняя облачность в баллах и высота нижней границы облаков в метрах; квадратными скобками обозначены формы облаков: Ci - перистые, Cs - перисто-слоистые, Cc - перисто-кучевые, Ac - высококучевые, As - высокослоистые, Sc - слоисто-кучевые, Ns - слоисто-дождевые, Cu - кучевые, Cb - кучево-дождевые. Подробнее классификацию облаков см. в Атласе облаков (PDF).
T - Температура воздуха - температура, измеренная на высоте 2 м над землей.
Td - Температура точки росы - температура, при понижении до которой содержащийся в воздухе водяной пар достигнет насыщения.
f - Относительная влажность воздуха - влажноcть воздуха, измеренная на высоте 2 м над землей.
Te - Эффективная температура - температура, которую ощущает одетый по сезону человек в тени. Характеристика душности погоды. При расчете учитывается влияние влажности воздуха и скорости ветра на теплоощущения человека.
Tes - Эффективная температура на солнце - температура, которую ощущает человек, с поправкой на солнечный нагрев. Характеристика знойности погоды. Зависит от высоты солнца над горизонтом, облачности и скорости ветра. Ночью, в пасмурную погоду, а также при ветре 12 м/с и более поправка равна нулю.
P - Атмосферное давление - приведенное к уровню моря атмосферное давление.
Po - Атмосферное давление - измеренное на уровне метеостанции атмосферное давление.
Tmin - Минимальная температура - минимум температуры воздуха на высоте 2 м над землей.
Tmax - Максимальная температура - максимум температуры воздуха на высоте 2 м над землей.
R - Количество осадков - Количество выпавших осадков за период времени, мм. При наведении курсора мыши на число - период времени, за который выпало указанное количество осадков.
R24 - Количество осадков - Количество выпавших осадков за 24 часа, мм.
S - Снежный покров - Высота снежного покрова, см. При наведении курсора мыши на число - состояние снежного покрова и степень покрытия местности в баллах.